Starlink 1800

operational
NORAD ID: 46700 Int'l Des: 2020-073 Owner: SPXS Country: US Constellation: starlink
LEOCIRCULARSTARLINK_TYPE

About Starlink 1800

Description loading...

Live Position

Loading 3D Globe...

Upcoming Passes

Altitude History

Altitude vs Time

uPlot chart will show altitude changes over time

Two-Line Element Set

1 46700U 20073AG 25352.91790346 .00091514 00000-0 17923-2 0 9999
2 46700 53.0491 243.7173 0015274 96.9293 263.3452 15.46533347284960
Epoch: Dec 18, 2025 • Age: 7 hours

Current Status

Altitude 423.1 km
Velocity 7.67 km/s
Sub-Earth Point 49.62°N, 147.83°E
Launch Date Oct 18, 2020
Age 5.1 years
Type internet

Technical Details

Classification Payload
Mass 260.00 kg
Dry Mass 248.00 kg
Total Mass 260.00 kg
Length 0.20 m
Diameter 2.80 m
Span 9.00 m
Shape Box + pan
Manufacturer SPXS
Bus Type Starlink
Phase Status In Orbit
Owner/State SPXS/US

Large Constellations

Loading constellations...